User: anonymous   Login
Location: Unspecified
(0.0000°N, 0.0000°E)
Time: 20:09:38
(UTC+00:00)
Language:

LES 1 - Orbit

View from above orbital plane
View from above orbital plane
View from above satellite
View from above satellite

Ground track
Ground track

The orbit data is extracted from the following two-line orbital elements,

1 01002U 65008C   18114.77110051  .00000008  00000-0 -52759-4 0  9990
2 01002  32.1429 253.3706 0015738 317.4217  42.5060  9.88352799922102
Epoch (UTC): 24 April 2018 18:30:23
Eccentricity: 0.0015738
inclination: 32.1429°
perigee height: 2779 km
apogee height: 2808 km
right ascension of ascending node: 253.3706°
argument of perigee: 317.4217°
revolutions per day: 9.88352799
mean anomaly at epoch: 42.5060°
orbit number at epoch: 92210

The dashed part of the orbit path shows where the satellite is in the earth's shadow,  

DLR